Time,TemperatureF,DewpointF,PressureIn,WindDirection,WindDirectionDegrees,WindSpeedMPH,WindSpeedGustMPH,Humidity,HourlyPrecipIn,Conditions,Clouds,dailyrainin,SoftwareType,DateUTC
2013-11-19 00:01:00,44.2,28.2,29.93,NW,314,0.0,0.0,53,0.00,,---,0.19,VWS V14.01,2013-11-19 05:01:00,
2013-11-19 00:05:00,44.2,28.6,29.93,WNW,291,0.0,1.0,54,0.00,,---,0.00,VWS V14.01,2013-11-19 05:05:00,
2013-11-19 00:11:00,44.1,28.1,29.94,NW,311,0.0,0.0,53,0.00,,---,0.00,VWS V14.01,2013-11-19 05:11:00,
2013-11-19 00:16:00,44.1,28.5,29.94,WNW,287,0.0,0.0,54,0.00,,---,0.00,VWS V14.01,2013-11-19 05:16:00,
2013-11-19 00:21:00,44.1,29.0,29.94,West,264,1.0,2.0,55,0.00,,---,0.00,VWS V14.01,2013-11-19 05:21:00,
2013-11-19 00:26:00,44.0,29.3,29.93,NW,308,0.0,0.0,56,0.00,,---,0.00,VWS V14.01,2013-11-19 05:26:00,
2013-11-19 00:31:00,43.7,29.5,29.93,West,270,0.0,2.0,57,0.00,,---,0.00,VWS V14.01,2013-11-19 05:31:00,
2013-11-19 00:36:00,43.3,29.5,29.93,West,276,0.0,1.0,58,0.00,,---,0.00,VWS V14.01,2013-11-19 05:36:00,
2013-11-19 00:41:00,43.0,29.2,29.93,SW,226,0.0,3.0,58,0.00,,---,0.00,VWS V14.01,2013-11-19 05:41:00,
2013-11-19 00:46:00,42.8,29.5,29.93,NE,40,0.0,2.0,59,0.00,,---,0.00,VWS V14.01,2013-11-19 05:46:00,
2013-11-19 00:51:00,42.5,29.2,29.94,NW,308,0.0,2.0,59,0.00,,---,0.00,VWS V14.01,2013-11-19 05:51:00,
2013-11-19 00:56:00,42.3,29.0,29.94,North,356,1.0,1.0,59,0.00,,---,0.00,VWS V14.01,2013-11-19 05:56:00,
2013-11-19 01:02:00,42.2,28.5,29.94,NNW,335,1.0,1.0,58,0.00,,---,0.00,VWS V14.01,2013-11-19 06:02:00,
2013-11-19 01:07:00,42.2,28.5,29.94,NNW,345,0.0,1.0,58,0.00,,---,0.00,VWS V14.01,2013-11-19 06:07:00,
2013-11-19 01:12:00,42.0,28.3,29.94,NW,325,0.0,0.0,58,0.00,,---,0.00,VWS V14.01,2013-11-19 06:12:00,
2013-11-19 01:17:00,41.8,28.1,29.95,WNW,298,0.0,1.0,58,0.00,,---,0.00,VWS V14.01,2013-11-19 06:17:00,
2013-11-19 01:22:00,41.7,28.0,29.95,NNW,336,0.0,1.0,58,0.00,,---,0.00,VWS V14.01,2013-11-19 06:22:00,
2013-11-19 01:27:00,41.8,28.1,29.95,NNW,340,0.0,1.0,58,0.00,,---,0.00,VWS V14.01,2013-11-19 06:27:00,
2013-11-19 01:32:00,41.8,27.7,29.95,NW,307,0.0,3.0,57,0.00,,---,0.00,VWS V14.01,2013-11-19 06:32:00,
2013-11-19 01:37:00,41.7,27.6,29.95,WNW,295,3.0,3.0,57,0.00,,---,0.00,VWS V14.01,2013-11-19 06:37:00,
2013-11-19 01:43:00,41.7,27.6,29.95,North,356,1.0,3.0,57,0.00,,---,0.00,VWS V14.01,2013-11-19 06:43:00,
2013-11-19 01:48:00,41.5,27.0,29.96,WNW,302,0.0,6.0,56,0.00,,---,0.00,VWS V14.01,2013-11-19 06:48:00,
2013-11-19 01:53:00,41.5,26.5,29.96,NE,39,2.0,2.0,55,0.00,,---,0.00,VWS V14.01,2013-11-19 06:53:00,
2013-11-19 01:58:00,41.4,26.9,29.96,ENE,60,1.0,3.0,56,0.00,,---,0.00,VWS V14.01,2013-11-19 06:58:00,
2013-11-19 02:03:00,41.3,26.8,29.96,WSW,245,1.0,3.0,56,0.00,,---,0.00,VWS V14.01,2013-11-19 07:03:00,
2013-11-19 02:08:00,41.0,26.5,29.97,North,4,0.0,4.0,56,0.00,,---,0.00,VWS V14.01,2013-11-19 07:08:00,
2013-11-19 02:13:00,40.8,26.8,29.97,North,9,1.0,2.0,57,0.00,,---,0.00,VWS V14.01,2013-11-19 07:13:00,
2013-11-19 02:18:00,40.7,26.7,29.97,NW,318,0.0,6.0,57,0.00,,---,0.00,VWS V14.01,2013-11-19 07:18:00,
2013-11-19 02:23:00,40.6,26.6,29.97,WNW,298,0.0,2.0,57,0.00,,---,0.00,VWS V14.01,2013-11-19 07:23:00,
2013-11-19 02:28:00,40.5,26.5,29.97,NW,304,2.0,3.0,57,0.00,,---,0.00,VWS V14.01,2013-11-19 07:28:00,
2013-11-19 02:33:00,40.4,26.4,29.97,NNW,338,0.0,1.0,57,0.00,,---,0.00,VWS V14.01,2013-11-19 07:33:00,
2013-11-19 02:39:00,40.4,26.4,29.97,NNW,332,2.0,3.0,57,0.00,,---,0.00,VWS V14.01,2013-11-19 07:39:00,
2013-11-19 02:44:00,40.3,26.7,29.98,West,277,1.0,5.0,58,0.00,,---,0.00,VWS V14.01,2013-11-19 07:44:00,
2013-11-19 02:49:00,40.2,27.0,29.98,WNW,295,3.0,3.0,59,0.00,,---,0.00,VWS V14.01,2013-11-19 07:49:00,
2013-11-19 02:54:00,40.1,26.5,29.98,NNW,333,1.0,1.0,58,0.00,,---,0.00,VWS V14.01,2013-11-19 07:54:00,
2013-11-19 02:59:00,40.1,26.5,29.98,WNW,293,2.0,5.0,58,0.00,,---,0.00,VWS V14.01,2013-11-19 07:59:00,
2013-11-19 03:04:00,40.1,26.5,29.98,NW,326,0.0,2.0,58,0.00,,---,0.00,VWS V14.01,2013-11-19 08:04:00,
2013-11-19 03:09:00,40.1,26.9,29.99,North,1,1.0,2.0,59,0.00,,---,0.00,VWS V14.01,2013-11-19 08:09:00,
2013-11-19 03:14:00,40.0,27.2,29.99,SSW,199,0.0,1.0,60,0.00,,---,0.00,VWS V14.01,2013-11-19 08:14:00,
2013-11-19 03:19:00,40.0,26.8,29.98,NNW,330,2.0,2.0,59,0.00,,---,0.00,VWS V14.01,2013-11-19 08:19:00,
2013-11-19 03:24:00,39.9,26.8,29.98,NNE,14,0.0,3.0,59,0.00,,---,0.00,VWS V14.01,2013-11-19 08:24:00,
2013-11-19 03:29:00,39.8,26.7,29.98,NNW,341,1.0,4.0,59,0.00,,---,0.00,VWS V14.01,2013-11-19 08:29:00,
2013-11-19 03:34:00,39.7,26.6,29.99,North,356,0.0,4.0,59,0.00,,---,0.00,VWS V14.01,2013-11-19 08:34:00,
2013-11-19 03:39:00,39.7,27.0,29.99,WNW,293,2.0,4.0,60,0.00,,---,0.00,VWS V14.01,2013-11-19 08:39:00,
2013-11-19 03:44:00,39.6,26.9,29.99,NNW,336,1.0,3.0,60,0.00,,---,0.00,VWS V14.01,2013-11-19 08:44:00,
2013-11-19 03:49:00,39.6,26.9,29.99,ENE,70,0.0,2.0,60,0.00,,---,0.00,VWS V14.01,2013-11-19 08:49:00,
2013-11-19 03:54:00,39.6,27.3,29.99,NNW,340,0.0,6.0,61,0.00,,---,0.00,VWS V14.01,2013-11-19 08:54:00,
2013-11-19 03:59:00,39.5,27.2,30.00,North,9,0.0,2.0,61,0.00,,---,0.00,VWS V14.01,2013-11-19 08:59:00,
2013-11-19 04:05:00,39.5,26.8,30.00,NW,325,0.0,0.0,60,0.00,,---,0.00,VWS V14.01,2013-11-19 09:05:00,
2013-11-19 04:10:00,39.5,27.2,30.00,WNW,293,0.0,1.0,61,0.00,,---,0.00,VWS V14.01,2013-11-19 09:10:00,
2013-11-19 04:15:00,39.4,27.5,30.00,NW,304,0.0,2.0,62,0.00,,---,0.00,VWS V14.01,2013-11-19 09:15:00,
2013-11-19 04:20:00,39.4,27.5,30.01,East,86,0.0,1.0,62,0.00,,---,0.00,VWS V14.01,2013-11-19 09:20:00,
2013-11-19 04:25:00,39.3,27.8,30.01,North,356,1.0,1.0,63,0.00,,---,0.00,VWS V14.01,2013-11-19 09:25:00,
2013-11-19 04:30:00,39.3,27.4,30.01,WNW,300,1.0,1.0,62,0.00,,---,0.00,VWS V14.01,2013-11-19 09:30:00,
2013-11-19 04:35:00,39.4,27.5,30.01,NW,307,0.0,1.0,62,0.00,,---,0.00,VWS V14.01,2013-11-19 09:35:00,
2013-11-19 04:40:00,39.3,27.4,30.02,NNW,335,0.0,1.0,62,0.00,,---,0.00,VWS V14.01,2013-11-19 09:40:00,
2013-11-19 04:45:00,39.3,27.4,30.02,North,6,0.0,8.0,62,0.00,,---,0.00,VWS V14.01,2013-11-19 09:45:00,
2013-11-19 04:50:00,39.3,27.4,30.02,NNW,335,0.0,2.0,62,0.00,,---,0.00,VWS V14.01,2013-11-19 09:50:00,
2013-11-19 04:55:00,39.2,27.3,30.03,WNW,287,0.0,1.0,62,0.00,,---,0.00,VWS V14.01,2013-11-19 09:55:00,
2013-11-19 05:00:00,39.2,27.3,30.03,NNW,330,1.0,3.0,62,0.00,,---,0.00,VWS V14.01,2013-11-19 10:00:00,
2013-11-19 05:06:00,39.1,27.2,30.03,NW,308,0.0,0.0,62,0.00,,---,0.00,VWS V14.01,2013-11-19 10:06:00,
2013-11-19 05:11:00,39.1,27.6,30.03,NNW,340,2.0,3.0,63,0.00,,---,0.00,VWS V14.01,2013-11-19 10:11:00,
2013-11-19 05:16:00,39.0,27.5,30.03,WNW,295,2.0,2.0,63,0.00,,---,0.00,VWS V14.01,2013-11-19 10:16:00,
2013-11-19 05:21:00,39.0,27.9,30.04,WSW,246,0.0,1.0,64,0.00,,---,0.00,VWS V14.01,2013-11-19 10:21:00,
2013-11-19 05:26:00,38.9,27.8,30.04,NE,48,0.0,1.0,64,0.00,,---,0.00,VWS V14.01,2013-11-19 10:26:00,
2013-11-19 05:31:00,38.9,27.4,30.04,North,360,3.0,3.0,63,0.00,,---,0.00,VWS V14.01,2013-11-19 10:31:00,
2013-11-19 05:36:00,38.8,27.3,30.05,WNW,283,0.0,1.0,63,0.00,,---,0.00,VWS V14.01,2013-11-19 10:36:00,
2013-11-19 05:41:00,38.8,27.7,30.04,NNW,330,0.0,0.0,64,0.00,,---,0.00,VWS V14.01,2013-11-19 10:41:00,
2013-11-19 05:46:00,38.8,27.7,30.05,North,5,1.0,2.0,64,0.00,,---,0.00,VWS V14.01,2013-11-19 10:46:00,
2013-11-19 05:51:00,38.7,28.0,30.06,NNW,330,0.0,0.0,65,0.00,,---,0.00,VWS V14.01,2013-11-19 10:51:00,
2013-11-19 05:56:00,38.7,28.0,30.06,NW,305,1.0,4.0,65,0.00,,---,0.00,VWS V14.01,2013-11-19 10:56:00,
2013-11-19 06:01:00,38.5,28.1,30.06,NNE,18,0.0,3.0,66,0.00,,---,0.00,VWS V14.01,2013-11-19 11:01:00,
2013-11-19 06:06:00,38.3,28.3,30.07,North,5,1.0,2.0,67,0.00,,---,0.00,VWS V14.01,2013-11-19 11:06:00,
2013-11-19 06:11:00,38.2,28.2,30.08,NNE,22,0.0,2.0,67,0.00,,---,0.00,VWS V14.01,2013-11-19 11:11:00,
2013-11-19 06:16:00,38.1,27.8,30.08,NW,316,0.0,3.0,66,0.00,,---,0.00,VWS V14.01,2013-11-19 11:16:00,
2013-11-19 06:21:00,38.0,27.7,30.08,NNW,341,1.0,1.0,66,0.00,,---,0.00,VWS V14.01,2013-11-19 11:21:00,
2013-11-19 06:26:00,37.9,27.6,30.08,WNW,294,3.0,3.0,66,0.00,,---,0.00,VWS V14.01,2013-11-19 11:26:00,
2013-11-19 06:31:00,37.8,27.5,30.08,North,349,1.0,3.0,66,0.00,,---,0.00,VWS V14.01,2013-11-19 11:31:00,
2013-11-19 06:36:00,37.7,27.4,30.09,NW,326,1.0,1.0,66,0.00,,---,0.00,VWS V14.01,2013-11-19 11:36:00,
2013-11-19 06:41:00,37.6,27.3,30.09,NW,316,1.0,5.0,66,0.00,,---,0.00,VWS V14.01,2013-11-19 11:41:00,
2013-11-19 06:46:00,37.4,27.1,30.10,NW,304,0.0,0.0,66,0.00,,---,0.00,VWS V14.01,2013-11-19 11:46:00,
2013-11-19 06:51:00,37.3,27.0,30.10,NNW,328,0.0,0.0,66,0.00,,---,0.00,VWS V14.01,2013-11-19 11:51:00,
2013-11-19 06:56:00,37.2,26.2,30.10,WSW,248,0.0,1.0,64,0.00,,---,0.00,VWS V14.01,2013-11-19 11:56:00,
2013-11-19 07:01:00,37.1,26.4,30.10,ENE,57,1.0,1.0,65,0.00,,---,0.00,VWS V14.01,2013-11-19 12:01:00,
2013-11-19 07:06:00,37.0,26.3,30.11,NNE,32,0.0,0.0,65,0.00,,---,0.00,VWS V14.01,2013-11-19 12:06:00,
2013-11-19 07:11:00,36.9,26.6,30.11,North,11,0.0,0.0,66,0.00,,---,0.00,VWS V14.01,2013-11-19 12:11:00,
2013-11-19 07:16:00,36.9,26.2,30.11,WNW,285,1.0,1.0,65,0.00,,---,0.00,VWS V14.01,2013-11-19 12:16:00,
2013-11-19 07:21:00,36.8,26.1,30.11,NNW,335,0.0,1.0,65,0.00,,---,0.00,VWS V14.01,2013-11-19 12:21:00,
2013-11-19 07:26:00,36.8,25.8,30.12,NW,326,0.0,0.0,64,0.00,,---,0.00,VWS V14.01,2013-11-19 12:26:00,
2013-11-19 07:31:00,36.8,25.8,30.12,NNW,330,0.0,1.0,64,0.00,,---,0.00,VWS V14.01,2013-11-19 12:31:00,
2013-11-19 07:36:00,36.9,25.9,30.12,NW,310,0.0,1.0,64,0.00,,---,0.00,VWS V14.01,2013-11-19 12:36:00,
2013-11-19 07:41:00,36.9,25.9,30.12,North,352,0.0,0.0,64,0.00,,---,0.00,VWS V14.01,2013-11-19 12:41:00,
2013-11-19 07:47:00,37.0,26.0,30.13,NW,308,0.0,1.0,64,0.00,,---,0.00,VWS V14.01,2013-11-19 12:47:00,
2013-11-19 07:52:00,37.1,25.7,30.13,WNW,297,0.0,1.0,63,0.00,,---,0.00,VWS V14.01,2013-11-19 12:52:00,
2013-11-19 07:57:00,37.2,25.8,30.13,NNW,338,1.0,1.0,63,0.00,,---,0.00,VWS V14.01,2013-11-19 12:57:00,
2013-11-19 08:02:00,37.3,25.9,30.14,NNW,337,0.0,1.0,63,0.00,,---,0.00,VWS V14.01,2013-11-19 13:02:00,
2013-11-19 08:07:00,37.4,26.0,30.14,NNE,29,0.0,0.0,63,0.00,,---,0.00,VWS V14.01,2013-11-19 13:07:00,
2013-11-19 08:12:00,37.6,26.2,30.14,North,6,1.0,2.0,63,0.00,,---,0.00,VWS V14.01,2013-11-19 13:12:00,
2013-11-19 08:17:00,38.0,26.1,30.14,NNW,339,1.0,2.0,62,0.00,,---,0.00,VWS V14.01,2013-11-19 13:17:00,
2013-11-19 08:22:00,38.7,26.8,30.14,North,356,1.0,2.0,62,0.00,,---,0.00,VWS V14.01,2013-11-19 13:22:00,
2013-11-19 08:27:00,39.3,26.6,30.14,ENE,65,3.0,4.0,60,0.00,,---,0.00,VWS V14.01,2013-11-19 13:27:00,
2013-11-19 08:33:00,39.4,26.3,30.14,NW,304,1.0,2.0,59,0.00,,---,0.00,VWS V14.01,2013-11-19 13:33:00,
2013-11-19 08:38:00,39.6,26.9,30.15,WSW,252,1.0,1.0,60,0.00,,---,0.00,VWS V14.01,2013-11-19 13:38:00,
2013-11-19 08:43:00,39.7,26.1,30.15,NNE,27,1.0,1.0,58,0.00,,---,0.00,VWS V14.01,2013-11-19 13:43:00,
2013-11-19 08:48:00,40.2,27.0,30.15,NNE,27,2.0,2.0,59,0.00,,---,0.00,VWS V14.01,2013-11-19 13:48:00,
2013-11-19 08:53:00,40.8,27.2,30.15,NNE,28,1.0,1.0,58,0.00,,---,0.00,VWS V14.01,2013-11-19 13:53:00,
2013-11-19 08:58:00,41.3,27.2,30.16,North,8,2.0,3.0,57,0.00,,---,0.00,VWS V14.01,2013-11-19 13:58:00,
2013-11-19 09:03:00,41.5,27.0,30.16,WNW,302,1.0,2.0,56,0.00,,---,0.00,VWS V14.01,2013-11-19 14:03:00,
2013-11-19 09:08:00,41.6,27.1,30.16,NW,319,0.0,2.0,56,0.00,,---,0.00,VWS V14.01,2013-11-19 14:08:00,
2013-11-19 09:13:00,41.9,26.9,30.16,WNW,293,1.0,2.0,55,0.00,,---,0.00,VWS V14.01,2013-11-19 14:13:00,
2013-11-19 09:18:00,42.1,27.1,30.16,WSW,257,0.0,3.0,55,0.00,,---,0.00,VWS V14.01,2013-11-19 14:18:00,
2013-11-19 09:23:00,41.9,26.5,30.17,NNW,339,1.0,5.0,54,0.00,,---,0.00,VWS V14.01,2013-11-19 14:23:00,
2013-11-19 09:28:00,41.2,26.7,30.17,NNW,341,2.0,2.0,56,0.00,,---,0.00,VWS V14.01,2013-11-19 14:28:00,
2013-11-19 09:33:00,41.4,26.9,30.17,NW,326,4.0,5.0,56,0.00,,---,0.00,VWS V14.01,2013-11-19 14:33:00,
2013-11-19 09:38:00,41.5,26.5,30.17,NNE,27,1.0,1.0,55,0.00,,---,0.00,VWS V14.01,2013-11-19 14:38:00,
2013-11-19 09:44:00,41.6,27.1,30.18,NNE,15,0.0,1.0,56,0.00,,---,0.00,VWS V14.01,2013-11-19 14:44:00,
2013-11-19 09:49:00,42.0,27.0,30.18,NNW,337,0.0,1.0,55,0.00,,---,0.00,VWS V14.01,2013-11-19 14:49:00,
2013-11-19 09:54:00,42.0,26.6,30.18,West,278,1.0,4.0,54,0.00,,---,0.00,VWS V14.01,2013-11-19 14:54:00,
2013-11-19 09:59:00,42.3,27.3,30.18,NW,312,0.0,2.0,55,0.00,,---,0.00,VWS V14.01,2013-11-19 14:59:00,
2013-11-19 10:04:00,42.7,27.2,30.18,South,169,1.0,2.0,54,0.00,,---,0.00,VWS V14.01,2013-11-19 15:04:00,
2013-11-19 10:09:00,43.0,27.0,30.18,West,271,2.0,4.0,53,0.00,,---,0.00,VWS V14.01,2013-11-19 15:09:00,
2013-11-19 10:14:00,42.6,27.1,30.18,NW,321,1.0,2.0,54,0.00,,---,0.00,VWS V14.01,2013-11-19 15:14:00,
2013-11-19 10:19:00,42.4,27.0,30.18,NW,308,0.0,2.0,54,0.00,,---,0.00,VWS V14.01,2013-11-19 15:19:00,
2013-11-19 10:24:00,42.3,26.9,30.19,NNW,334,0.0,2.0,54,0.00,,---,0.00,VWS V14.01,2013-11-19 15:24:00,
2013-11-19 10:29:00,42.2,26.8,30.19,SSE,163,1.0,2.0,54,0.00,,---,0.00,VWS V14.01,2013-11-19 15:29:00,
2013-11-19 10:34:00,41.9,26.5,30.19,WNW,284,1.0,4.0,54,0.00,,---,0.00,VWS V14.01,2013-11-19 15:34:00,
2013-11-19 10:39:00,41.3,26.4,30.20,NNE,23,0.0,1.0,55,0.00,,---,0.00,VWS V14.01,2013-11-19 15:39:00,
2013-11-19 10:45:00,41.3,26.4,30.20,North,350,0.0,0.0,55,0.00,,---,0.00,VWS V14.01,2013-11-19 15:45:00,
2013-11-19 10:50:00,41.8,26.8,30.20,NNE,28,3.0,3.0,55,0.00,,---,0.00,VWS V14.01,2013-11-19 15:50:00,
2013-11-19 10:55:00,42.1,27.1,30.20,NW,323,1.0,2.0,55,0.00,,---,0.00,VWS V14.01,2013-11-19 15:55:00,
2013-11-19 11:00:00,42.2,27.2,30.20,NW,312,1.0,1.0,55,0.00,,---,0.00,VWS V14.01,2013-11-19 16:00:00,
2013-11-19 11:05:00,43.1,26.7,30.20,North,4,1.0,7.0,52,0.00,,---,0.00,VWS V14.01,2013-11-19 16:05:00,
2013-11-19 11:10:00,43.1,27.1,30.20,NW,311,0.0,2.0,53,0.00,,---,0.00,VWS V14.01,2013-11-19 16:10:00,
2013-11-19 11:15:00,42.5,26.6,30.20,WNW,302,0.0,2.0,53,0.00,,---,0.00,VWS V14.01,2013-11-19 16:15:00,
2013-11-19 11:20:00,42.7,26.8,30.20,NNE,23,1.0,1.0,53,0.00,,---,0.00,VWS V14.01,2013-11-19 16:20:00,
2013-11-19 11:25:00,42.6,27.1,30.20,NW,323,0.0,1.0,54,0.00,,---,0.00,VWS V14.01,2013-11-19 16:25:00,
2013-11-19 11:30:00,42.7,27.2,30.20,North,11,1.0,2.0,54,0.00,,---,0.00,VWS V14.01,2013-11-19 16:30:00,
2013-11-19 11:35:00,42.8,27.3,30.19,NNW,343,5.0,5.0,54,0.00,,---,0.00,VWS V14.01,2013-11-19 16:35:00,
2013-11-19 11:40:00,43.1,27.1,30.19,SSE,167,1.0,4.0,53,0.00,,---,0.00,VWS V14.01,2013-11-19 16:40:00,
2013-11-19 11:45:00,42.4,26.5,30.20,NE,49,1.0,1.0,53,0.00,,---,0.00,VWS V14.01,2013-11-19 16:45:00,
2013-11-19 11:50:00,42.2,26.8,30.20,SW,221,1.0,1.0,54,0.00,,---,0.00,VWS V14.01,2013-11-19 16:50:00,
2013-11-19 11:55:00,42.5,27.5,30.20,NNE,30,1.0,2.0,55,0.00,,---,0.00,VWS V14.01,2013-11-19 16:55:00,
2013-11-19 12:00:00,43.0,27.5,30.20,NW,326,5.0,5.0,54,0.00,,---,0.00,VWS V14.01,2013-11-19 17:00:00,
2013-11-19 12:05:00,43.2,26.8,30.20,West,274,0.0,3.0,52,0.00,,---,0.00,VWS V14.01,2013-11-19 17:05:00,
2013-11-19 12:11:00,43.2,27.2,30.19,SSW,208,0.0,1.0,53,0.00,,---,0.00,VWS V14.01,2013-11-19 17:11:00,
2013-11-19 12:16:00,43.1,27.1,30.20,SE,139,0.0,0.0,53,0.00,,---,0.00,VWS V14.01,2013-11-19 17:16:00,
2013-11-19 12:21:00,42.9,27.0,30.20,NNW,337,0.0,1.0,53,0.00,,---,0.00,VWS V14.01,2013-11-19 17:21:00,
2013-11-19 12:26:00,42.5,26.6,30.20,NNE,12,2.0,2.0,53,0.00,,---,0.00,VWS V14.01,2013-11-19 17:26:00,
2013-11-19 12:31:00,42.2,26.8,30.20,NE,54,0.0,1.0,54,0.00,,---,0.00,VWS V14.01,2013-11-19 17:31:00,
2013-11-19 12:36:00,41.9,26.9,30.20,WSW,243,0.0,1.0,55,0.00,,---,0.00,VWS V14.01,2013-11-19 17:36:00,
2013-11-19 12:39:00,41.9,26.9,30.20,SE,128,0.0,0.0,55,0.00,,---,0.00,VWS V14.01,2013-11-19 17:39:00,
2013-11-19 12:44:00,42.2,27.2,30.20,ESE,104,3.0,3.0,55,0.00,,---,0.00,VWS V14.01,2013-11-19 17:44:00,
2013-11-19 12:49:00,42.6,27.1,30.20,North,5,1.0,2.0,54,0.00,,---,0.00,VWS V14.01,2013-11-19 17:49:00,
2013-11-19 12:54:00,42.9,27.4,30.20,NNW,343,1.0,2.0,54,0.00,,---,0.00,VWS V14.01,2013-11-19 17:54:00,
2013-11-19 12:59:00,43.3,27.3,30.20,NNW,345,1.0,2.0,53,0.00,,---,0.00,VWS V14.01,2013-11-19 17:59:00,
2013-11-19 13:04:00,43.4,27.0,30.20,WSW,252,1.0,2.0,52,0.00,,---,0.00,VWS V14.01,2013-11-19 18:04:00,
2013-11-19 13:09:00,43.2,27.2,30.20,NNW,345,0.0,1.0,53,0.00,,---,0.00,VWS V14.01,2013-11-19 18:09:00,
2013-11-19 13:14:00,43.0,27.0,30.20,NE,41,0.0,1.0,53,0.00,,---,0.00,VWS V14.01,2013-11-19 18:14:00,
2013-11-19 13:19:00,43.0,27.0,30.20,North,356,1.0,2.0,53,0.00,,---,0.00,VWS V14.01,2013-11-19 18:19:00,
2013-11-19 13:24:00,42.8,26.9,30.20,NW,323,0.0,2.0,53,0.00,,---,0.00,VWS V14.01,2013-11-19 18:24:00,
2013-11-19 13:29:00,42.3,26.4,30.20,North,8,0.0,3.0,53,0.00,,---,0.00,VWS V14.01,2013-11-19 18:29:00,
2013-11-19 13:34:00,42.2,26.8,30.21,North,356,1.0,1.0,54,0.00,,---,0.00,VWS V14.01,2013-11-19 18:34:00,
2013-11-19 13:39:00,42.0,27.0,30.20,NE,37,1.0,1.0,55,0.00,,---,0.00,VWS V14.01,2013-11-19 18:39:00,
2013-11-19 13:44:00,42.1,27.1,30.20,NNE,13,0.0,2.0,55,0.00,,---,0.00,VWS V14.01,2013-11-19 18:44:00,
2013-11-19 13:49:00,42.1,27.1,30.20,North,4,0.0,0.0,55,0.00,,---,0.00,VWS V14.01,2013-11-19 18:49:00,
2013-11-19 13:55:00,42.0,27.0,30.20,ENE,67,0.0,0.0,55,0.00,,---,0.00,VWS V14.01,2013-11-19 18:55:00,
2013-11-19 14:00:00,42.1,27.1,30.20,SE,139,1.0,3.0,55,0.00,,---,0.00,VWS V14.01,2013-11-19 19:00:00,
2013-11-19 14:05:00,42.1,27.5,30.21,North,11,2.0,3.0,56,0.00,,---,0.00,VWS V14.01,2013-11-19 19:05:00,
2013-11-19 14:10:00,41.9,26.5,30.20,NNW,340,1.0,2.0,54,0.00,,---,0.00,VWS V14.01,2013-11-19 19:10:00,
2013-11-19 14:15:00,41.6,26.6,30.20,NW,323,1.0,1.0,55,0.00,,---,0.00,VWS V14.01,2013-11-19 19:15:00,
2013-11-19 14:21:00,41.7,26.7,30.20,NW,323,0.0,0.0,55,0.00,,---,0.00,VWS V14.01,2013-11-19 19:21:00,
2013-11-19 14:26:00,41.6,26.6,30.20,NW,316,2.0,2.0,55,0.00,,---,0.00,VWS V14.01,2013-11-19 19:26:00,
2013-11-19 14:31:00,41.7,26.7,30.20,NNW,331,0.0,2.0,55,0.00,,---,0.00,VWS V14.01,2013-11-19 19:31:00,
2013-11-19 14:36:00,41.7,26.7,30.20,WSW,256,1.0,1.0,55,0.00,,---,0.00,VWS V14.01,2013-11-19 19:36:00,
2013-11-19 14:41:00,41.6,26.6,30.20,West,271,0.0,0.0,55,0.00,,---,0.00,VWS V14.01,2013-11-19 19:41:00,
2013-11-19 14:46:00,41.6,27.1,30.20,NNE,23,4.0,4.0,56,0.00,,---,0.00,VWS V14.01,2013-11-19 19:46:00,
2013-11-19 14:51:00,41.5,26.5,30.20,North,360,1.0,2.0,55,0.00,,---,0.00,VWS V14.01,2013-11-19 19:51:00,
2013-11-19 14:56:00,41.3,26.8,30.20,NW,310,0.0,1.0,56,0.00,,---,0.00,VWS V14.01,2013-11-19 19:56:00,
2013-11-19 15:01:00,41.0,26.5,30.20,West,274,0.0,4.0,56,0.00,,---,0.00,VWS V14.01,2013-11-19 20:01:00,
2013-11-19 15:06:00,40.7,26.2,30.20,NW,323,0.0,2.0,56,0.00,,---,0.00,VWS V14.01,2013-11-19 20:06:00,
2013-11-19 15:11:00,40.4,26.4,30.20,WNW,295,0.0,3.0,57,0.00,,---,0.00,VWS V14.01,2013-11-19 20:11:00,
2013-11-19 15:16:00,40.4,26.4,30.20,NW,308,1.0,2.0,57,0.00,,---,0.00,VWS V14.01,2013-11-19 20:16:00,
2013-11-19 15:21:00,40.4,26.4,30.20,NW,323,1.0,2.0,57,0.00,,---,0.00,VWS V14.01,2013-11-19 20:21:00,
2013-11-19 15:26:00,40.3,26.3,30.20,West,277,2.0,3.0,57,0.00,,---,0.00,VWS V14.01,2013-11-19 20:26:00,
2013-11-19 15:32:00,40.1,26.1,30.20,WNW,285,1.0,1.0,57,0.00,,---,0.00,VWS V14.01,2013-11-19 20:32:00,
2013-11-19 15:37:00,39.9,26.3,30.21,WNW,302,3.0,3.0,58,0.00,,---,0.00,VWS V14.01,2013-11-19 20:37:00,
2013-11-19 15:42:00,39.7,26.1,30.21,NW,316,1.0,2.0,58,0.00,,---,0.00,VWS V14.01,2013-11-19 20:42:00,
2013-11-19 15:47:00,39.6,26.1,30.21,WNW,287,4.0,4.0,58,0.00,,---,0.00,VWS V14.01,2013-11-19 20:47:00,
2013-11-19 15:52:00,39.5,26.0,30.22,NNW,330,0.0,3.0,58,0.00,,---,0.00,VWS V14.01,2013-11-19 20:52:00,
2013-11-19 15:57:00,39.5,26.0,30.21,NW,323,2.0,4.0,58,0.00,,---,0.00,VWS V14.01,2013-11-19 20:57:00,
2013-11-19 16:02:00,39.4,26.3,30.22,NW,306,2.0,2.0,59,0.00,,---,0.00,VWS V14.01,2013-11-19 21:02:00,
2013-11-19 16:07:00,39.3,26.2,30.22,NNW,339,2.0,2.0,59,0.00,,---,0.00,VWS V14.01,2013-11-19 21:07:00,
2013-11-19 16:12:00,39.1,26.0,30.22,North,350,1.0,2.0,59,0.00,,---,0.00,VWS V14.01,2013-11-19 21:12:00,
2013-11-19 16:17:00,38.9,26.2,30.22,WNW,297,0.0,1.0,60,0.00,,---,0.00,VWS V14.01,2013-11-19 21:17:00,
2013-11-19 16:22:00,38.8,26.1,30.22,NNW,329,1.0,1.0,60,0.00,,---,0.00,VWS V14.01,2013-11-19 21:22:00,
2013-11-19 16:27:00,38.7,26.0,30.23,NNE,32,0.0,1.0,60,0.00,,---,0.00,VWS V14.01,2013-11-19 21:27:00,
2013-11-19 16:32:00,38.5,25.8,30.24,West,269,0.0,0.0,60,0.00,,---,0.00,VWS V14.01,2013-11-19 21:32:00,
2013-11-19 16:38:00,38.2,26.0,30.24,West,269,0.0,0.0,61,0.00,,---,0.00,VWS V14.01,2013-11-19 21:38:00,
2013-11-19 16:43:00,38.0,26.1,30.24,West,280,0.0,2.0,62,0.00,,---,0.00,VWS V14.01,2013-11-19 21:43:00,
2013-11-19 16:48:00,37.8,26.0,30.24,WNW,283,0.0,1.0,62,0.00,,---,0.00,VWS V14.01,2013-11-19 21:48:00,
2013-11-19 16:53:00,37.6,26.2,30.24,WNW,301,1.0,1.0,63,0.00,,---,0.00,VWS V14.01,2013-11-19 21:53:00,
2013-11-19 16:58:00,37.2,25.8,30.24,WNW,300,0.0,1.0,63,0.00,,---,0.00,VWS V14.01,2013-11-19 21:58:00,
2013-11-19 17:03:00,37.0,26.0,30.25,WNW,283,1.0,1.0,64,0.00,,---,0.00,VWS V14.01,2013-11-19 22:03:00,
2013-11-19 17:08:00,36.8,25.8,30.25,NW,310,1.0,1.0,64,0.00,,---,0.00,VWS V14.01,2013-11-19 22:08:00,
2013-11-19 17:13:00,36.7,26.1,30.25,NW,319,2.0,2.0,65,0.00,,---,0.00,VWS V14.01,2013-11-19 22:13:00,
2013-11-19 17:18:00,36.4,25.8,30.25,NW,304,2.0,3.0,65,0.00,,---,0.00,VWS V14.01,2013-11-19 22:18:00,
2013-11-19 17:24:00,36.4,25.8,30.25,NW,306,0.0,0.0,65,0.00,,---,0.00,VWS V14.01,2013-11-19 22:24:00,
2013-11-19 17:29:00,36.3,25.7,30.25,West,269,0.0,0.0,65,0.00,,---,0.00,VWS V14.01,2013-11-19 22:29:00,
2013-11-19 17:34:00,36.1,25.5,30.26,West,267,0.0,0.0,65,0.00,,---,0.00,VWS V14.01,2013-11-19 22:34:00,
2013-11-19 17:39:00,36.1,25.5,30.26,WNW,300,0.0,1.0,65,0.00,,---,0.00,VWS V14.01,2013-11-19 22:39:00,
2013-11-19 17:44:00,35.9,25.7,30.26,West,271,1.0,1.0,66,0.00,,---,0.00,VWS V14.01,2013-11-19 22:44:00,
2013-11-19 17:49:00,35.7,25.5,30.26,WNW,298,2.0,2.0,66,0.00,,---,0.00,VWS V14.01,2013-11-19 22:49:00,
2013-11-19 17:54:00,35.6,25.4,30.26,West,266,0.0,1.0,66,0.00,,---,0.00,VWS V14.01,2013-11-19 22:54:00,
2013-11-19 17:59:00,35.6,25.4,30.27,WSW,250,0.0,1.0,66,0.00,,---,0.00,VWS V14.01,2013-11-19 22:59:00,
2013-11-19 18:04:00,35.5,25.3,30.27,West,259,1.0,1.0,66,0.00,,---,0.00,VWS V14.01,2013-11-19 23:04:00,
2013-11-19 18:09:00,35.4,25.2,30.27,WSW,250,1.0,1.0,66,0.00,,---,0.00,VWS V14.01,2013-11-19 23:09:00,
2013-11-19 18:14:00,35.3,25.5,30.28,NW,314,0.0,0.0,67,0.00,,---,0.00,VWS V14.01,2013-11-19 23:14:00,
2013-11-19 18:19:00,35.4,25.5,30.28,WNW,293,0.0,2.0,67,0.00,,---,0.00,VWS V14.01,2013-11-19 23:19:00,
2013-11-19 18:24:00,35.3,25.5,30.28,WNW,290,1.0,2.0,67,0.00,,---,0.00,VWS V14.01,2013-11-19 23:24:00,
2013-11-19 18:29:00,35.2,25.7,30.28,WNW,290,2.0,2.0,68,0.00,,---,0.00,VWS V14.01,2013-11-19 23:29:00,
2013-11-19 18:34:00,35.1,25.6,30.29,WNW,288,1.0,2.0,68,0.00,,---,0.00,VWS V14.01,2013-11-19 23:34:00,
2013-11-19 18:39:00,35.2,25.4,30.29,West,265,0.0,1.0,67,0.00,,---,0.00,VWS V14.01,2013-11-19 23:39:00,
2013-11-19 18:44:00,35.2,25.4,30.29,WNW,297,0.0,2.0,67,0.00,,---,0.00,VWS V14.01,2013-11-19 23:44:00,
2013-11-19 18:49:00,35.1,25.6,30.29,NW,308,1.0,1.0,68,0.00,,---,0.00,VWS V14.01,2013-11-19 23:49:00,
2013-11-19 18:54:00,34.9,25.4,30.29,West,280,1.0,1.0,68,0.00,,---,0.00,VWS V14.01,2013-11-19 23:54:00,
2013-11-19 18:59:00,34.8,25.3,30.30,WNW,289,0.0,1.0,68,0.00,,---,0.00,VWS V14.01,2013-11-19 23:59:00,
2013-11-19 19:04:00,34.7,25.2,30.30,West,277,0.0,0.0,68,0.00,,---,0.00,VWS V14.01,2013-11-20 00:04:00,
2013-11-19 19:09:00,34.8,25.3,30.30,WSW,255,1.0,1.0,68,0.00,,---,0.00,VWS V14.01,2013-11-20 00:09:00,
2013-11-19 19:15:00,34.8,25.3,30.30,WNW,286,0.0,1.0,68,0.00,,---,0.00,VWS V14.01,2013-11-20 00:15:00,
2013-11-19 19:20:00,34.7,25.2,30.30,WNW,293,1.0,1.0,68,0.00,,---,0.00,VWS V14.01,2013-11-20 00:20:00,
2013-11-19 19:25:00,34.6,25.1,30.31,West,264,1.0,3.0,68,0.00,,---,0.00,VWS V14.01,2013-11-20 00:25:00,
2013-11-19 19:30:00,34.6,25.1,30.31,West,277,0.0,0.0,68,0.00,,---,0.00,VWS V14.01,2013-11-20 00:30:00,
2013-11-19 19:35:00,34.5,25.4,30.31,WNW,289,2.0,2.0,69,0.00,,---,0.00,VWS V14.01,2013-11-20 00:35:00,
2013-11-19 19:40:00,34.4,25.3,30.31,West,280,0.0,3.0,69,0.00,,---,0.00,VWS V14.01,2013-11-20 00:40:00,
2013-11-19 19:45:00,34.2,25.1,30.32,WSW,256,1.0,2.0,69,0.00,,---,0.00,VWS V14.01,2013-11-20 00:45:00,
2013-11-19 19:50:00,34.2,25.1,30.32,WNW,297,1.0,2.0,69,0.00,,---,0.00,VWS V14.01,2013-11-20 00:50:00,
2013-11-19 19:55:00,34.1,25.0,30.32,West,260,0.0,2.0,69,0.00,,---,0.00,VWS V14.01,2013-11-20 00:55:00,
2013-11-19 20:01:00,34.1,25.4,30.32,West,277,1.0,1.0,70,0.00,,---,0.00,VWS V14.01,2013-11-20 01:01:00,
2013-11-19 20:06:00,34.0,25.3,30.32,WSW,258,1.0,3.0,70,0.00,,---,0.00,VWS V14.01,2013-11-20 01:06:00,
2013-11-19 20:11:00,34.1,25.4,30.32,West,277,2.0,2.0,70,0.00,,---,0.00,VWS V14.01,2013-11-20 01:11:00,
2013-11-19 20:16:00,34.0,25.3,30.32,WNW,284,1.0,1.0,70,0.00,,---,0.00,VWS V14.01,2013-11-20 01:16:00,
2013-11-19 20:21:00,33.9,25.2,30.33,West,279,1.0,3.0,70,0.00,,---,0.00,VWS V14.01,2013-11-20 01:21:00,
2013-11-19 20:26:00,33.8,25.1,30.33,West,277,0.0,1.0,70,0.00,,---,0.00,VWS V14.01,2013-11-20 01:26:00,
2013-11-19 20:31:00,33.7,25.0,30.33,West,274,0.0,1.0,70,0.00,,---,0.00,VWS V14.01,2013-11-20 01:31:00,
2013-11-19 20:36:00,33.6,25.2,30.33,WSW,249,0.0,2.0,71,0.00,,---,0.00,VWS V14.01,2013-11-20 01:36:00,
2013-11-19 20:41:00,33.5,25.1,30.33,West,280,1.0,2.0,71,0.00,,---,0.00,VWS V14.01,2013-11-20 01:41:00,
2013-11-19 20:46:00,33.5,25.1,30.33,WNW,290,1.0,2.0,71,0.00,,---,0.00,VWS V14.01,2013-11-20 01:46:00,
2013-11-19 20:51:00,33.4,25.0,30.33,WSW,256,0.0,2.0,71,0.00,,---,0.00,VWS V14.01,2013-11-20 01:51:00,
2013-11-19 20:56:00,33.4,25.0,30.34,WNW,291,1.0,2.0,71,0.00,,---,0.00,VWS V14.01,2013-11-20 01:56:00,
2013-11-19 21:01:00,33.4,25.0,30.34,WNW,291,2.0,2.0,71,0.00,,---,0.00,VWS V14.01,2013-11-20 02:01:00,
2013-11-19 21:06:00,33.3,24.9,30.34,WNW,283,1.0,2.0,71,0.00,,---,0.00,VWS V14.01,2013-11-20 02:06:00,
2013-11-19 21:11:00,33.3,24.9,30.35,WSW,248,0.0,3.0,71,0.00,,---,0.00,VWS V14.01,2013-11-20 02:11:00,
2013-11-19 21:16:00,33.2,24.8,30.35,WNW,295,0.0,0.0,71,0.00,,---,0.00,VWS V14.01,2013-11-20 02:16:00,
2013-11-19 21:21:00,33.1,24.7,30.36,West,261,1.0,1.0,71,0.00,,---,0.00,VWS V14.01,2013-11-20 02:21:00,
2013-11-19 21:27:00,33.0,24.6,30.36,WNW,290,1.0,1.0,71,0.00,,---,0.00,VWS V14.01,2013-11-20 02:27:00,
2013-11-19 21:32:00,32.9,24.5,30.36,WNW,284,2.0,2.0,71,0.00,,---,0.00,VWS V14.01,2013-11-20 02:32:00,
2013-11-19 21:37:00,32.8,24.8,30.36,West,260,0.0,0.0,72,0.00,,---,0.00,VWS V14.01,2013-11-20 02:37:00,
2013-11-19 21:42:00,32.5,24.5,30.37,WSW,249,0.0,0.0,72,0.00,,---,0.00,VWS V14.01,2013-11-20 02:42:00,
2013-11-19 21:47:00,32.5,24.5,30.37,West,264,2.0,2.0,72,0.00,,---,0.00,VWS V14.01,2013-11-20 02:47:00,
2013-11-19 21:52:00,32.6,24.6,30.37,West,280,1.0,1.0,72,0.00,,---,0.00,VWS V14.01,2013-11-20 02:52:00,
2013-11-19 21:57:00,32.5,24.5,30.37,WNW,285,2.0,2.0,72,0.00,,---,0.00,VWS V14.01,2013-11-20 02:57:00,
2013-11-19 22:02:00,32.4,24.4,30.38,West,267,0.0,1.0,72,0.00,,---,0.00,VWS V14.01,2013-11-20 03:02:00,
2013-11-19 22:07:00,32.4,24.4,30.37,West,275,0.0,0.0,72,0.00,,---,0.00,VWS V14.01,2013-11-20 03:07:00,
2013-11-19 22:13:00,32.3,24.3,30.37,West,263,1.0,1.0,72,0.00,,---,0.00,VWS V14.01,2013-11-20 03:13:00,
2013-11-19 22:18:00,32.1,24.4,30.37,West,281,0.0,1.0,73,0.00,,---,0.00,VWS V14.01,2013-11-20 03:18:00,
2013-11-19 22:23:00,31.9,24.2,30.38,WSW,255,0.0,1.0,73,0.00,,---,0.00,VWS V14.01,2013-11-20 03:23:00,
2013-11-19 22:28:00,32.0,24.3,30.37,WNW,290,1.0,2.0,73,0.00,,---,0.00,VWS V14.01,2013-11-20 03:28:00,
2013-11-19 22:33:00,31.9,24.2,30.37,WNW,288,1.0,2.0,73,0.00,,---,0.00,VWS V14.01,2013-11-20 03:33:00,
2013-11-19 22:38:00,31.9,24.2,30.38,WSW,253,0.0,1.0,73,0.00,,---,0.00,VWS V14.01,2013-11-20 03:38:00,
2013-11-19 22:43:00,31.8,24.1,30.38,WNW,287,1.0,1.0,73,0.00,,---,0.00,VWS V14.01,2013-11-20 03:43:00,
2013-11-19 22:48:00,31.8,24.1,30.38,WNW,283,1.0,1.0,73,0.00,,---,0.00,VWS V14.01,2013-11-20 03:48:00,
2013-11-19 22:53:00,31.7,24.0,30.37,WSW,240,1.0,2.0,73,0.00,,---,0.00,VWS V14.01,2013-11-20 03:53:00,
2013-11-19 22:59:00,31.7,24.0,30.38,West,270,0.0,0.0,73,0.00,,---,0.00,VWS V14.01,2013-11-20 03:59:00,
2013-11-19 23:04:00,31.6,24.0,30.37,WNW,288,0.0,2.0,73,0.00,,---,0.00,VWS V14.01,2013-11-20 04:04:00,
2013-11-19 23:09:00,31.6,24.3,30.37,West,277,0.0,1.0,74,0.00,,---,0.00,VWS V14.01,2013-11-20 04:09:00,
2013-11-19 23:14:00,31.5,23.9,30.38,SW,229,0.0,0.0,73,0.00,,---,0.00,VWS V14.01,2013-11-20 04:14:00,
2013-11-19 23:19:00,31.4,24.1,30.37,West,280,1.0,1.0,74,0.00,,---,0.00,VWS V14.01,2013-11-20 04:19:00,
2013-11-19 23:24:00,31.2,23.9,30.38,SW,227,0.0,1.0,74,0.00,,---,0.00,VWS V14.01,2013-11-20 04:24:00,
2013-11-19 23:29:00,31.1,23.8,30.38,WNW,283,0.0,1.0,74,0.00,,---,0.00,VWS V14.01,2013-11-20 04:29:00,
2013-11-19 23:34:00,31.1,23.8,30.38,WSW,257,0.0,0.0,74,0.00,,---,0.00,VWS V14.01,2013-11-20 04:34:00,
2013-11-19 23:39:00,31.0,23.7,30.37,West,280,0.0,0.0,74,0.00,,---,0.00,VWS V14.01,2013-11-20 04:39:00,
2013-11-19 23:44:00,30.9,23.6,30.38,West,273,0.0,0.0,74,0.00,,---,0.00,VWS V14.01,2013-11-20 04:44:00,
2013-11-19 23:50:00,30.8,23.5,30.38,WSW,249,1.0,1.0,74,0.00,,---,0.00,VWS V14.01,2013-11-20 04:50:00,
2013-11-19 23:55:00,30.9,23.6,30.38,West,262,1.0,1.0,74,0.00,,---,0.00,VWS V14.01,2013-11-20 04:55:00,